Simultaneous Nadir Overpasses (SNOs) Predictions

Prediction of SNOs between GOES-15 and METOP-A Satellite Orbit:

Table of predicted SNOs for the next 14.0 days since TLE Epoch: 11/22/2019
Index Date Time (GOES-15) GOES-15 Lat,Lon METOP-A Lat,Lon Distance(km) Time Diff (sec)
1 11/23/2019 17:27:54 -0.22,-128.47 -0.24,-128.48 1.84 80
2 11/26/2019 05:26:16 0.22,-128.44 0.31,-128.12 37.02 80
3 11/27/2019 17:45:07 -0.21,-128.42 0.76,-132.70 488.23 80
4 11/28/2019 17:27:09 -0.21,-128.41 -0.38,-127.73 77.98 80
5 11/30/2019 05:46:09 0.20,-128.39 -0.69,-132.34 450.68 80
6 12/01/2019 05:22:50 0.20,-128.37 0.40,-127.36 115.02 80
7 12/02/2019 17:41:42 -0.19,-128.34 0.61,-131.95 411.05 80
8 12/03/2019 17:23:42 -0.19,-128.33 -0.48,-126.96 154.79 80
9 12/05/2019 05:42:44 0.18,-128.31 -0.53,-131.59 373.95 80
10 12/06/2019 05:19:24 0.18,-128.29 0.56,-126.61 191.38 80




NCC Satellite Simultaneous Nadir Overpasses (SNOs) Prediction Service
